Orbital Elements at Epoch 2459200.5 (2020-Dec-17.0) TDB
Reference: JPL 31 (heliocentric ecliptic J2000)
Element | Value | Uncertainty (1-sigma) | Units |
e | .060636750728495 | 2.9269e-08 | |
a | 2.648285143309796 | 1.0963e-08 | au |
q | 2.487701737216944 | 7.7715e-08 | au |
i | 3.551411467011925 | 3.6364e-06 | deg |
node | 226.0367696352439 | 5.9062e-05 | deg |
peri | 36.07131205584135 | 6.9138e-05 | deg |
M | 68.31061155818858 | 3.4652e-05 | deg |
tp | 2458901.802755806790 (2020-Feb-22.30275581) | 0.000152 | TDB |
period | 1574.147931876706 4.31 | 9.7744e-06 2.676e-08 | d yr |
n | .2286951516499509 | 1.42e-09 | deg/d |
Q | 2.80886854940265 | 1.1627e-08 | au |
|
| | Orbit Determination Parameters
Additional Information
|